Wind_Speed
21 20 18 16 16 13 5 6 6 7 12 12 12 11 11 13 13 12 13 12 8 7 8 8 8 8 8 8 8 8 8 9 9 10 10 11 11 11 11 11 12 12 12 12 13 13 12 12 12
23 22 21 20 20 14 9 7 6 10 14 13 12 11 12 13 11 11 11 10 7 7 7 7 7 7 7 6 6 6 6 6 7 7 8 9 9 9 10 10 10 11 11 12 12 12 12 12 12
24 25 25 25 24 16 11 8 6 9 11 12 11 11 12 12 10 10 9 8 6 6 6 7 6 6 6 5 4 4 4 4 5 5 6 7 8 8 8 8 9 9 10 11 12 12 12 12 12
25 27 28 28 25 18 13 11 7 7 9 10 10 10 12 10 9 8 8 7 6 6 6 6 6 6 5 4 3 3 3 4 4 5 6 6 7 7 7 8 9 9 10 11 11 12 12 12 12
25 28 30 30 28 22 18 14 10 10 9 9 10 11 13 8 8 8 7 7 7 6 6 6 6 5 4 3 2 2 2 3 4 5 6 6 7 7 8 8 9 9 10 11 11 12 12 12 12
24 26 29 28 26 23 20 17 14 13 12 11 11 12 13 9 8 7 7 7 7 7 7 6 6 4 3 2 2 1 2 3 4 5 5 6 7 7 8 8 9 10 10 11 12 12 13 13 13
21 24 26 25 25 23 20 18 17 17 15 13 12 13 13 10 8 7 7 7 7 7 7 6 5 4 2 1 1 1 1 2 3 5 5 6 7 8 8 9 10 11 11 12 13 13 13 13 13
18 21 23 24 25 23 20 20 21 19 17 15 14 13 14 11 9 8 8 8 7 7 6 5 4 3 1 0 0 1 2 3 4 5 6 7 8 8 9 9 10 11 12 13 14 14 15 15 15
17 19 18 21 21 20 20 20 20 19 18 18 15 16 15 12 10 9 8 8 7 6 5 4 3 2 1 2 2 3 3 4 5 6 7 8 8 9 10 11 12 13 14 14 15 16 16 16 16
17 16 15 18 20 20 21 22 22 21 19 17 15 17 15 12 11 10 10 9 8 7 6 5 3 3 3 4 4 5 5 6 6 7 8 9 10 11 12 13 13 14 15 16 16 17 17 18 18
18 16 18 19 20 23 25 24 24 22 20 17 16 17 16 14 12 12 12 11 9 8 7 6 5 5 5 5 6 7 8 8 9 10 11 11 13 13 14 15 16 17 17 18 18 19 19 19 20
20 19 20 20 22 24 26 25 23 22 21 18 19 21 20 17 14 13 13 13 11 9 9 8 7 8 8 8 9 10 11 11 12 13 14 14 16 17 17 17 18 19 19 20 20 21 22 22 23
22 21 21 21 20 20 23 25 23 22 22 22 24 24 21 18 15 13 14 14 13 12 11 11 10 11 11 12 12 13 14 14 15 16 17 18 18 20 21 22 22 23 23 22 23 24 24 25 26
23 23 23 21 20 19 20 21 22 21 22 23 24 22 19 18 16 15 16 15 14 14 14 14 13 13 14 15 15 16 17 18 18 19 20 21 21 23 24 25 26 27 27 26 26 27 27 28 28
24 24 23 22 20 19 19 19 19 20 22 23 23 21 20 20 19 17 18 17 17 16 16 16 15 15 17 18 19 19 21 21 21 22 22 24 24 26 28 28 29 30 30 29 29 29 30 30 31
23 23 22 21 21 21 20 16 16 18 21 22 22 21 21 21 20 19 20 19 18 18 17 18 18 18 19 20 21 22 23 24 24 24 25 26 27 28 31 31 31 31 30 30 29 31 31 30 31
23 21 20 19 20 21 20 16 14 15 18 21 21 21 21 22 22 22 21 20 19 19 18 19 20 20 21 22 24 24 25 26 26 26 27 28 29 30 31 32 33 31 29 28 27 28 29 29 29
20 18 18 16 18 22 21 16 16 16 19 21 21 21 22 22 22 23 24 23 21 20 20 20 22 22 23 25 26 26 27 27 28 28 29 29 30 32 33 33 32 30 29 28 28 26 26 27 26
20 17 17 15 18 24 22 18 19 19 21 22 20 20 22 23 25 26 27 27 24 22 21 22 23 24 25 27 28 29 29 30 30 30 31 32 33 33 34 33 32 31 30 29 28 26 25 25 25
26 24 21 19 22 27 26 23 23 23 23 23 22 24 26 28 28 26 27 29 26 24 24 25 26 27 28 29 30 31 32 32 32 33 33 34 34 35 36 35 33 31 30 29 27 25 25 26 25
28 27 24 21 23 28 28 25 25 27 28 27 27 28 28 29 29 29 30 30 30 28 27 27 29 30 31 32 32 33 34 35 35 35 36 37 38 37 38 37 35 33 30 28 28 28 28 28 28
29 28 27 27 27 26 26 26 24 25 28 30 31 30 29 31 32 32 33 33 32 32 30 30 32 32 33 34 34 35 36 37 37 38 39 40 40 39 39 38 36 34 33 31 31 31 31 31 32
30 27 27 27 29 30 28 26 21 20 26 29 30 31 32 33 33 34 34 36 35 36 35 34 34 34 35 35 36 37 38 39 40 41 42 42 42 41 40 39 38 37 35 34 34 33 34 35 36
28 28 27 27 28 31 28 27 22 21 26 29 31 31 32 33 34 34 35 36 37 38 37 36 35 35 36 36 38 39 40 41 42 43 44 44 43 42 41 40 40 39 37 37 37 37 37 38 40
27 27 26 25 26 26 22 23 24 27 30 33 35 35 34 32 32 34 35 36 37 37 38 37 37 36 37 38 39 41 42 43 44 45 45 46 45 43 42 42 42 41 40 40 40 40 41 42 44
26 28 27 21 17 15 16 21 26 32 34 36 38 38 37 35 34 34 35 36 36 37 37 37 37 37 38 39 40 41 42 43 45 46 46 45 43 43 44 45 44 43 43 43 43 43 45 46 47
24 25 25 24 21 18 16 23 29 32 33 34 37 38 39 38 37 36 35 35 35 35 36 37 37 37 38 39 40 41 43 44 45 46 46 45 45 46 47 47 46 46 46 46 46 47 48 50 51
23 22 23 27 25 22 17 23 30 31 31 31 33 35 36 36 35 34 34 33 33 33 34 34 35 37 38 39 41 42 43 44 45 46 46 47 48 49 49 48 49 50 50 50 51 52 52 53 54
20 23 25 25 26 24 21 24 26 29 31 32 31 29 29 30 30 30 29 30 31 31 32 33 34 35 37 38 40 41 43 44 45 46 47 49 50 50 51 52 52 52 53 54 54 55 56 56 57
18 20 23 25 26 27 24 28 29 29 31 30 27 25 25 26 27 28 28 29 30 31 32 33 34 36 37 39 40 42 44 45 47 49 50 51 52 53 53 54 54 55 56 57 57 58 58 59 59
Wind_Direction
215 211 209 201 191 184 213 253 272 264 262 261 262 267 270 271 273 273 274 272 264 245 243 241 240 239 239 240 241 242 242 244 246 248 250 252 254 256 258 259 259 257 256 257 258 258 259 261 263
215 212 211 204 195 189 229 237 249 252 259 265 268 271 271 276 279 274 271 266 251 235 232 232 232 232 233 235 236 238 241 246 249 251 253 254 257 258 260 261 261 261 260 261 261 261 262 262 263
216 213 213 208 200 199 225 211 233 254 259 262 268 276 279 282 278 271 264 255 234 223 219 220 220 220 223 225 229 231 240 248 255 258 259 261 262 262 263 264 264 265 264 263 264 263 264 265 266
217 214 214 211 205 202 233 239 229 242 255 264 267 271 272 274 272 267 255 240 222 210 209 212 210 209 211 217 226 237 249 260 265 267 268 269 269 269 270 269 268 268 268 268 268 268 268 269 269
219 217 216 213 209 209 227 238 240 236 250 265 270 268 274 272 264 259 246 231 209 196 198 197 196 195 195 200 214 238 263 277 279 279 279 278 279 279 279 279 278 277 276 276 275 274 274 274 275
220 219 218 216 214 216 227 239 246 242 240 252 263 268 268 268 259 251 238 223 206 193 191 186 183 178 178 182 198 231 269 284 288 289 289 291 290 288 287 286 285 285 284 282 280 278 277 278 278
224 222 219 215 214 218 225 233 240 241 234 239 246 257 262 259 250 241 232 220 205 188 183 178 173 166 163 168 199 259 288 300 308 311 311 308 305 301 297 292 289 288 286 285 283 282 281 280 280
224 224 218 213 214 217 222 229 235 237 229 229 236 247 250 247 237 233 228 217 205 190 187 184 180 174 170 161 343 336 330 325 323 321 321 319 316 312 306 299 295 291 288 285 284 283 282 282 281
227 226 219 210 215 219 224 232 234 235 228 227 228 240 247 241 233 234 231 221 214 209 205 211 216 234 270 297 316 333 334 331 329 327 325 322 319 316 310 305 300 294 290 287 285 284 282 281 281
232 227 215 208 210 216 221 229 229 229 228 228 230 241 244 241 238 241 239 232 231 231 230 237 251 282 304 312 328 333 332 328 328 328 326 322 322 320 313 308 305 300 294 289 286 284 282 281 281
232 226 215 208 215 219 218 221 225 221 221 223 229 243 243 242 244 245 245 245 247 251 257 264 273 293 305 315 324 328 329 328 327 326 326 324 324 322 315 311 307 303 298 293 289 287 284 283 280
232 228 224 218 220 223 222 220 222 218 215 213 221 230 233 231 240 250 252 252 253 260 267 275 284 295 304 312 320 327 329 327 327 328 328 325 325 324 320 315 310 305 301 296 292 289 286 284 280
233 231 230 229 230 233 230 226 223 218 216 214 222 228 230 228 233 249 256 258 260 266 275 280 290 297 306 314 318 323 326 328 332 330 329 327 325 324 321 316 312 308 302 297 291 288 286 283 282
233 233 233 233 235 238 237 232 228 219 219 222 228 228 234 238 235 246 254 260 265 271 276 283 291 298 306 313 318 323 326 329 330 328 328 328 325 326 324 317 313 310 306 298 291 288 286 284 281
233 235 235 236 238 239 241 234 229 222 222 225 228 231 232 237 234 240 253 260 265 269 275 283 291 299 304 310 314 319 324 327 326 325 325 326 326 326 324 320 318 314 310 301 293 289 287 285 283
234 235 237 237 240 240 241 235 230 226 224 225 226 230 237 241 245 240 245 255 263 268 274 282 289 296 302 305 309 316 321 323 323 323 323 322 324 326 326 323 321 319 314 307 300 294 290 287 287
231 235 237 239 245 245 242 235 223 231 229 225 226 227 235 241 247 250 245 248 260 267 273 280 287 293 298 302 305 311 315 317 318 318 319 321 322 325 326 324 323 321 317 311 305 300 295 292 293
228 238 239 236 247 248 244 230 211 219 230 231 227 225 232 240 248 252 254 254 258 263 271 278 283 289 293 297 302 306 309 310 312 314 315 316 318 321 324 320 318 318 318 315 309 304 300 298 298
211 222 234 235 237 247 244 227 204 212 231 231 229 227 231 236 239 244 250 255 258 261 268 275 280 285 288 291 294 297 300 302 304 307 309 312 315 317 320 317 314 315 315 315 313 308 303 302 303
219 217 216 220 229 240 242 232 213 209 227 234 227 225 227 232 234 242 250 255 259 261 268 272 278 283 285 286 288 290 292 294 296 300 303 306 309 311 314 315 311 312 312 312 312 311 307 305 304
223 224 218 215 228 242 244 241 228 221 225 233 234 232 233 239 241 241 248 253 260 262 267 272 276 280 282 282 282 284 287 289 291 294 298 300 303 305 308 311 311 309 309 311 309 306 305 304 301
228 228 225 220 224 236 247 249 243 237 236 237 238 239 239 241 245 247 251 257 262 265 266 271 274 277 277 276 277 279 282 285 287 290 292 294 297 300 304 306 307 306 306 306 305 304 303 301 299
231 229 230 230 231 233 238 245 243 248 249 245 244 242 242 243 245 249 255 260 264 267 268 271 274 276 275 273 273 275 279 282 284 286 288 291 294 296 299 301 302 302 303 303 301 301 301 301 299
231 231 231 231 236 239 237 240 241 240 245 246 246 247 246 247 248 251 254 257 262 266 268 271 272 273 272 273 273 275 277 280 282 283 285 287 290 293 296 297 299 300 300 299 297 297 297 297 297
229 230 231 236 240 246 249 246 238 236 235 240 245 249 251 254 255 256 257 258 261 265 268 270 270 271 271 272 273 274 276 278 280 282 283 285 288 291 293 296 296 296 295 296 296 296 295 295 296
230 230 229 229 244 257 257 251 242 239 239 241 246 252 257 260 260 260 261 261 263 265 266 268 269 270 270 271 272 273 275 277 279 281 282 284 287 290 292 293 293 292 293 295 294 294 295 295 295
226 232 228 222 219 232 236 235 238 241 244 247 250 253 256 259 260 261 261 262 263 263 264 265 266 267 268 268 270 271 274 276 278 280 283 285 287 289 290 291 291 293 294 293 294 295 295 295 295
222 226 226 221 223 229 233 239 243 247 249 252 253 255 256 257 258 259 260 260 261 262 263 263 263 265 266 267 269 271 273 275 277 280 283 284 286 287 289 290 292 292 293 293 294 295 295 295 294
226 219 222 224 224 230 239 245 247 248 249 250 251 252 254 255 256 257 257 258 259 260 261 262 264 264 266 267 269 271 273 275 277 279 281 283 285 287 289 290 291 291 292 293 294 295 295 295 295
226 225 226 227 225 225 236 252 251 253 252 249 251 253 254 255 255 255 256 257 258 260 261 263 264 266 267 268 270 272 274 275 277 279 281 283 285 287 287 289 290 291 292 293 293 294 294 294 294
Height
5882 5885 5888 5891 5895 5897 5898 5898 5898 5897 5894 5895 5896 5896 5895 5894 5895 5897 5893 5892 5893 5893 5892 5892 5893 5893 5893 5894 5894 5895 5895 5895 5896 5896 5897 5897 5898 5898 5898 5898 5898 5898 5898 5899 5899 5899 5899 5899 5899
5879 5882 5885 5888 5891 5893 5895 5895 5896 5895 5894 5895 5895 5895 5894 5892 5893 5893 5891 5891 5892 5892 5892 5892 5892 5892 5892 5893 5893 5893 5894 5894 5895 5895 5896 5896 5896 5896 5896 5896 5897 5897 5897 5897 5897 5897 5897 5897 5897
5875 5878 5882 5885 5888 5890 5891 5892 5893 5894 5894 5895 5894 5894 5893 5892 5892 5891 5891 5890 5891 5891 5891 5891 5891 5891 5892 5892 5892 5892 5893 5893 5894 5894 5895 5895 5895 5895 5895 5895 5895 5895 5895 5895 5895 5895 5895 5895 5895
5871 5875 5877 5881 5884 5887 5888 5890 5891 5893 5893 5893 5894 5893 5890 5891 5891 5890 5890 5890 5890 5890 5890 5891 5891 5891 5891 5891 5892 5892 5892 5893 5893 5893 5894 5894 5894 5894 5894 5894 5894 5894 5894 5893 5893 5893 5893 5893 5893
5867 5870 5873 5875 5880 5884 5886 5887 5890 5892 5893 5893 5893 5891 5889 5890 5890 5889 5889 5889 5890 5890 5890 5890 5890 5891 5891 5891 5891 5891 5891 5892 5892 5892 5893 5893 5893 5893 5893 5893 5892 5892 5892 5892 5892 5892 5891 5891 5891
5863 5866 5869 5872 5877 5882 5884 5886 5888 5890 5892 5892 5892 5890 5888 5889 5889 5889 5889 5889 5889 5889 5889 5890 5890 5890 5890 5890 5890 5891 5891 5891 5891 5891 5891 5891 5891 5891 5891 5891 5891 5891 5890 5890 5890 5889 5889 5889 5889
5861 5863 5865 5869 5873 5878 5882 5885 5887 5888 5890 5891 5890 5889 5888 5888 5888 5888 5888 5888 5888 5888 5889 5889 5889 5890 5890 5890 5890 5890 5890 5890 5890 5890 5890 5890 5890 5890 5890 5890 5889 5889 5889 5888 5888 5887 5887 5887 5887
5857 5860 5861 5865 5869 5874 5879 5881 5884 5885 5887 5888 5888 5887 5885 5886 5887 5887 5887 5887 5887 5888 5888 5889 5889 5889 5889 5889 5890 5890 5890 5890 5890 5890 5890 5889 5889 5889 5889 5888 5888 5887 5887 5886 5886 5885 5885 5885 5885
5854 5857 5859 5862 5866 5871 5875 5878 5880 5881 5883 5885 5885 5885 5884 5884 5885 5886 5887 5887 5887 5888 5888 5888 5888 5889 5889 5889 5889 5889 5889 5889 5889 5889 5889 5888 5888 5888 5888 5887 5886 5886 5885 5884 5884 5883 5883 5883 5882
5852 5854 5857 5859 5863 5868 5871 5874 5876 5878 5881 5882 5882 5882 5883 5883 5884 5885 5886 5886 5886 5887 5887 5888 5888 5888 5888 5888 5888 5888 5888 5888 5888 5888 5887 5887 5887 5887 5886 5885 5885 5884 5883 5882 5881 5881 5880 5880 5880
5849 5852 5854 5856 5859 5862 5865 5869 5871 5874 5878 5880 5882 5880 5881 5882 5883 5884 5885 5885 5885 5886 5886 5886 5886 5887 5887 5887 5887 5887 5887 5887 5887 5886 5886 5886 5885 5885 5884 5883 5882 5881 5880 5879 5879 5878 5877 5877 5877
5846 5848 5850 5852 5855 5857 5859 5863 5866 5870 5874 5877 5879 5878 5878 5879 5881 5882 5883 5883 5884 5884 5885 5885 5885 5885 5886 5886 5886 5886 5886 5885 5885 5885 5884 5883 5883 5882 5882 5881 5879 5878 5877 5876 5875 5875 5874 5873 5873
5842 5845 5847 5850 5852 5854 5856 5859 5862 5866 5870 5872 5873 5872 5873 5876 5878 5880 5881 5881 5882 5883 5883 5883 5884 5884 5884 5884 5884 5884 5884 5883 5883 5882 5882 5881 5880 5879 5878 5877 5875 5874 5873 5871 5870 5870 5869 5869 5867
5838 5841 5843 5846 5849 5850 5852 5855 5858 5862 5866 5868 5869 5867 5871 5873 5875 5876 5878 5879 5880 5881 5881 5881 5882 5882 5882 5882 5882 5882 5881 5881 5881 5880 5879 5878 5877 5876 5874 5873 5871 5869 5868 5866 5865 5864 5863 5863 5862
5833 5837 5840 5843 5845 5847 5849 5852 5855 5859 5862 5864 5866 5866 5867 5870 5869 5873 5875 5876 5877 5878 5879 5879 5880 5880 5880 5880 5879 5879 5879 5878 5878 5877 5875 5874 5873 5872 5870 5868 5866 5864 5862 5861 5859 5858 5857 5856 5856
5829 5833 5836 5839 5841 5843 5847 5850 5853 5855 5858 5861 5863 5865 5866 5867 5867 5868 5870 5872 5873 5875 5875 5876 5877 5878 5877 5877 5876 5876 5876 5876 5874 5874 5872 5871 5869 5868 5866 5863 5861 5858 5856 5854 5853 5852 5850 5849 5849
5825 5829 5832 5836 5838 5840 5843 5847 5849 5852 5855 5858 5860 5862 5864 5865 5866 5865 5864 5866 5869 5871 5872 5873 5873 5874 5874 5873 5873 5873 5873 5872 5871 5870 5869 5867 5866 5864 5862 5859 5856 5853 5850 5848 5847 5846 5844 5843 5843
5821 5825 5829 5833 5836 5836 5839 5843 5845 5850 5852 5855 5857 5859 5861 5862 5863 5862 5862 5863 5864 5867 5869 5869 5869 5870 5870 5869 5869 5869 5869 5868 5867 5866 5865 5863 5862 5860 5857 5854 5852 5849 5846 5843 5841 5840 5839 5838 5837
5816 5822 5827 5831 5834 5833 5835 5839 5842 5846 5849 5851 5854 5856 5858 5858 5858 5858 5858 5858 5861 5862 5864 5865 5865 5865 5865 5865 5865 5865 5864 5863 5862 5861 5860 5858 5857 5855 5853 5850 5847 5844 5841 5838 5836 5834 5833 5832 5831
5810 5815 5821 5827 5829 5829 5831 5834 5838 5841 5845 5847 5848 5850 5851 5851 5850 5854 5854 5853 5855 5856 5859 5860 5860 5860 5860 5860 5860 5859 5859 5858 5857 5856 5854 5853 5851 5850 5847 5844 5841 5839 5837 5834 5832 5830 5829 5828 5826
5805 5809 5815 5821 5824 5823 5826 5829 5833 5836 5838 5841 5842 5844 5846 5847 5847 5848 5849 5847 5848 5851 5854 5855 5855 5855 5854 5854 5853 5853 5852 5852 5851 5850 5849 5847 5845 5843 5841 5839 5836 5834 5832 5829 5827 5825 5823 5821 5819
5799 5803 5808 5812 5816 5819 5821 5823 5827 5829 5832 5833 5836 5839 5841 5841 5842 5844 5843 5842 5843 5845 5846 5849 5848 5848 5848 5847 5846 5846 5846 5845 5844 5843 5842 5841 5839 5837 5835 5833 5830 5828 5826 5824 5821 5819 5817 5815 5813
5793 5798 5801 5805 5808 5812 5815 5818 5823 5825 5824 5826 5829 5831 5833 5835 5836 5838 5839 5838 5838 5839 5839 5842 5841 5840 5840 5839 5839 5839 5838 5837 5837 5836 5835 5833 5832 5830 5828 5825 5823 5821 5819 5817 5814 5812 5809 5807 5804
5788 5792 5795 5798 5802 5805 5810 5813 5817 5819 5819 5819 5821 5823 5825 5828 5830 5832 5833 5832 5833 5833 5832 5833 5835 5834 5833 5832 5831 5830 5830 5829 5829 5828 5826 5825 5823 5821 5819 5817 5815 5813 5811 5808 5806 5804 5801 5798 5795
5783 5787 5791 5794 5797 5800 5805 5807 5811 5811 5811 5812 5813 5815 5818 5821 5823 5824 5825 5826 5826 5826 5826 5826 5826 5826 5825 5825 5824 5823 5823 5821 5820 5819 5818 5816 5815 5812 5811 5809 5807 5805 5802 5800 5797 5794 5791 5788 5784
5778 5782 5787 5792 5796 5799 5802 5803 5803 5802 5805 5807 5808 5810 5812 5814 5815 5816 5817 5818 5818 5819 5818 5818 5818 5818 5817 5817 5816 5815 5814 5813 5812 5810 5809 5807 5805 5803 5802 5800 5797 5795 5792 5789 5786 5783 5780 5776 5772
5774 5777 5782 5786 5789 5792 5795 5796 5793 5795 5798 5800 5802 5803 5804 5806 5807 5808 5808 5809 5809 5810 5810 5810 5810 5809 5809 5808 5808 5807 5806 5805 5803 5801 5799 5797 5796 5794 5792 5789 5787 5784 5781 5778 5775 5771 5768 5764 5759
5769 5774 5777 5780 5783 5786 5790 5790 5787 5788 5791 5793 5793 5794 5795 5797 5798 5799 5799 5800 5800 5801 5801 5801 5801 5801 5801 5800 5799 5798 5797 5795 5794 5792 5790 5788 5786 5783 5781 5778 5775 5772 5769 5766 5762 5758 5754 5750 5745
5765 5768 5771 5775 5778 5782 5785 5784 5779 5780 5782 5783 5784 5785 5787 5788 5789 5790 5791 5791 5792 5793 5793 5793 5793 5793 5792 5791 5790 5789 5787 5786 5784 5782 5780 5777 5775 5772 5769 5766 5763 5760 5757 5753 5748 5744 5740 5736 5731
5760 5764 5767 5769 5772 5775 5777 5778 5774 5773 5772 5772 5774 5777 5779 5781 5782 5782 5783 5784 5784 5785 5785 5785 5784 5784 5783 5782 5781 5780 5778 5776 5774 5772 5769 5766 5764 5760 5757 5754 5750 5747 5743 5739 5735 5730 5726 5721 5716